Theta_e
351 356 353 347 329 326 318 319 326 324 325 333 331 329 329 332 328 322 344 347 348 348 355 359 360 358 358 359 360 360 359 359 360 360 360 362 361 361 360 361 361 362 359 360 359 359 359 359 359
348 347 346 338 323 315 318 323 323 327 331 335 333 331 330 328 338 339 342 348 349 348 355 357 359 358 358 359 359 359 357 355 356 359 361 360 361 361 362 361 360 361 361 360 361 362 361 361 360
348 347 338 329 326 317 317 324 325 330 332 331 330 334 332 330 338 339 347 349 351 352 356 360 359 358 357 358 358 358 356 356 352 352 357 361 361 358 359 361 361 361 361 360 361 360 360 358 357
350 346 339 325 319 322 324 327 329 329 332 333 332 328 336 341 339 344 349 349 351 352 355 358 358 357 357 358 357 356 355 355 353 355 360 359 359 359 359 359 359 360 359 357 358 358 357 357 357
349 338 327 321 321 324 328 331 330 328 328 329 330 327 330 341 346 347 348 348 349 350 355 357 358 357 356 353 354 356 355 355 355 358 358 359 360 359 361 361 359 358 358 357 358 357 357 358 357
334 335 320 316 320 325 330 332 331 329 329 329 328 328 332 344 343 344 346 346 347 350 355 355 356 354 352 351 354 355 352 354 356 360 360 361 360 360 360 361 361 360 359 358 357 357 358 359 359
330 328 319 319 321 325 328 333 329 326 326 325 330 324 332 338 344 346 345 347 346 349 353 357 357 354 353 355 354 353 355 357 358 360 361 360 360 360 361 361 360 360 359 359 359 359 359 359 360
339 332 321 323 322 321 330 330 330 327 325 332 333 324 328 338 343 345 345 345 346 347 351 354 358 357 354 347 347 351 356 358 359 361 361 360 361 359 358 361 361 360 360 361 361 361 360 363 363
337 326 320 319 322 325 331 327 333 333 329 330 334 332 337 342 342 341 340 341 344 344 347 351 352 353 354 348 350 348 358 360 360 360 358 358 354 356 359 361 360 361 362 362 363 363 362 362 362
331 327 322 326 326 326 330 329 329 327 327 329 331 336 339 339 338 337 336 337 339 342 345 349 352 350 352 348 355 357 357 355 357 355 358 354 356 359 355 359 358 357 357 360 362 362 362 363 357
331 325 330 327 329 333 330 330 331 326 322 327 328 332 336 335 335 335 337 340 342 345 346 351 352 352 350 350 351 352 353 351 356 362 358 356 357 356 354 356 355 361 360 361 360 361 361 356 357
327 330 328 328 328 331 331 331 328 329 327 331 334 336 336 333 332 332 335 339 343 344 347 350 351 352 350 349 347 353 351 354 352 357 360 359 355 357 359 358 361 365 364 363 365 360 360 357 358
328 329 331 327 328 331 332 328 328 328 331 334 335 336 334 334 332 334 336 340 343 343 345 348 350 352 352 350 354 354 355 355 354 356 363 359 354 357 358 362 363 363 366 363 365 362 362 361 357
330 330 330 330 327 330 326 329 329 331 332 333 334 334 335 334 333 334 335 338 341 342 344 347 347 351 351 348 356 356 359 355 358 356 359 362 361 362 357 362 362 362 364 364 366 364 363 361 360
331 325 327 328 327 326 326 323 323 334 333 331 332 334 335 335 336 335 335 336 340 342 343 344 345 348 351 350 353 359 355 359 357 355 360 359 361 361 362 360 360 360 363 367 367 367 366 361 359
325 325 319 327 326 327 326 314 329 333 331 329 331 333 335 336 335 337 337 337 340 341 341 343 339 344 347 350 351 353 355 356 357 356 356 359 357 360 361 359 359 358 365 366 365 364 362 361 357
323 315 317 320 330 328 325 320 329 330 331 329 331 333 334 336 337 337 337 339 339 341 340 342 344 341 345 349 353 356 359 356 357 357 357 360 359 356 359 357 357 363 364 364 362 362 359 355 355
313 313 315 317 326 327 324 322 329 332 330 329 331 332 334 335 337 338 337 338 339 341 342 342 343 346 349 348 355 356 354 354 358 358 357 362 357 354 358 355 357 359 358 363 364 362 358 355 353
318 314 311 316 325 324 323 322 326 332 332 329 331 332 333 335 340 342 339 338 338 339 340 342 344 348 347 349 350 351 346 351 356 357 361 361 362 360 359 354 355 357 354 363 366 362 360 358 359
317 313 310 317 325 324 322 321 326 329 332 333 333 332 332 335 338 341 343 340 339 338 341 343 345 349 352 352 358 355 356 354 358 357 361 361 359 362 360 358 358 358 358 364 365 364 357 358 360
313 310 308 308 322 325 323 320 323 328 331 333 335 336 335 332 335 339 342 343 342 340 342 344 348 350 353 357 356 356 356 363 354 353 355 358 360 362 361 358 358 356 360 360 367 364 361 355 359
307 310 308 313 319 313 322 308 318 325 328 330 332 334 335 336 336 338 340 343 344 344 344 345 349 350 351 358 355 355 354 353 346 350 354 356 361 362 360 358 356 355 362 368 363 362 363 363 353
309 314 314 317 316 314 316 311 317 322 320 328 332 332 335 336 337 337 339 342 344 346 346 347 348 350 351 355 358 353 351 349 350 353 358 359 363 364 360 360 360 360 361 365 364 363 365 362 356
316 315 317 318 314 306 312 311 310 315 320 325 331 334 335 337 338 338 341 343 343 346 346 347 349 351 353 354 357 358 355 354 351 351 362 353 353 358 363 362 363 364 365 365 364 364 363 363 360
316 312 304 303 304 302 312 308 311 316 324 327 328 332 336 338 338 338 340 342 343 344 346 347 351 352 353 354 355 357 358 360 355 353 349 353 351 352 358 364 364 360 364 367 364 362 362 363 363
311 310 303 295 297 301 312 303 313 322 329 330 332 334 336 338 339 340 341 342 343 345 347 348 351 354 354 355 356 359 361 356 352 353 353 351 352 353 360 361 361 363 364 363 361 357 356 361 361
309 306 311 304 305 301 304 309 314 322 325 328 329 333 334 337 339 340 342 342 343 345 347 350 351 355 356 355 358 359 360 360 355 359 359 354 359 356 359 362 363 363 361 363 361 355 356 359 357
309 312 304 305 297 296 301 304 307 316 321 326 325 327 331 336 338 341 342 343 344 345 348 351 353 355 356 355 357 357 358 360 360 359 360 358 360 358 361 362 362 360 359 362 362 357 358 358 355
307 306 307 307 304 298 297 304 315 315 322 324 324 326 329 331 334 338 341 344 345 346 347 349 351 353 355 356 356 357 357 358 359 356 359 358 357 358 358 363 361 361 357 359 360 359 357 356 356
313 311 311 304 303 306 304 303 322 324 325 325 325 327 333 336 338 342 343 343 345 346 347 346 351 352 354 356 357 356 358 359 357 357 357 360 358 358 362 362 361 361 360 361 357 355 355 353 354
Wind_Speed
10 8 3 5 6 7 6 7 6 7 5 4 3 4 8 10 9 5 5 7 11 13 14 13 12 10 8 8 8 9 9 7 10 10 9 8 10 11 10 9 9 10 11 12 12 12 12 11 11
5 4 4 2 8 6 5 6 8 7 6 7 8 4 4 8 11 12 10 10 14 12 13 13 12 9 8 9 9 9 10 8 6 7 9 9 10 10 12 11 12 11 12 11 12 12 11 12 11
5 5 5 2 2 5 6 5 9 11 5 3 4 3 4 5 6 5 13 12 12 9 8 14 12 10 10 10 10 11 12 14 13 9 6 11 13 13 13 13 13 13 12 11 12 12 11 10 10
5 5 5 6 4 7 9 13 11 9 7 3 5 8 8 8 3 8 12 11 12 12 12 14 13 12 12 14 13 12 11 15 12 7 11 13 12 13 14 13 12 11 11 11 11 11 10 10 9
4 4 4 4 6 8 12 11 6 6 5 7 1 6 7 7 9 13 12 9 10 10 12 13 13 15 14 14 13 11 13 8 12 10 12 14 13 13 12 12 13 12 11 10 10 9 9 9 8
4 4 6 5 10 10 10 7 6 7 6 6 7 9 7 8 11 10 9 8 9 13 11 14 15 17 17 15 12 10 13 4 9 11 13 14 13 13 11 12 13 12 11 11 10 9 9 9 8
5 6 5 5 11 11 7 3 5 7 6 8 6 6 8 9 10 9 9 8 8 10 13 10 13 16 17 15 12 3 11 11 10 12 12 12 12 11 9 10 11 10 9 10 10 9 9 9 10
1 4 4 3 10 6 3 4 6 8 10 8 3 7 11 12 8 8 8 9 9 11 9 12 10 13 13 11 9 3 8 10 10 11 11 10 11 10 8 9 8 7 8 8 8 10 11 12 12
2 5 4 3 5 8 3 5 7 5 8 3 5 5 15 14 9 8 7 8 7 8 11 14 13 12 14 12 6 3 8 9 10 10 8 11 7 9 10 10 5 6 6 8 10 12 12 11 9
4 3 5 5 4 4 4 3 7 5 5 8 12 14 15 12 10 8 9 10 10 11 11 13 12 11 15 13 10 9 6 6 6 5 6 5 5 4 6 6 5 5 5 7 8 8 9 13 8
4 4 10 6 4 3 5 10 1 4 7 9 13 13 12 10 9 7 8 9 9 12 9 10 11 11 9 8 8 3 3 6 6 6 6 5 5 4 4 5 6 6 7 7 8 9 9 7 7
3 9 4 5 4 4 7 2 7 9 7 11 13 13 10 8 8 9 8 8 11 11 13 12 12 9 10 3 5 4 6 4 6 6 5 4 4 3 2 2 3 2 2 3 0 3 4 5 1
7 10 11 6 5 4 2 3 4 8 9 14 13 11 10 7 8 8 8 9 10 11 10 11 10 9 6 5 3 5 6 5 7 5 4 3 4 3 2 1 1 2 1 3 2 3 2 1 2
5 11 12 8 5 6 1 5 3 9 10 13 12 10 9 7 7 8 8 9 9 9 10 10 11 6 7 5 3 4 3 5 3 4 5 5 2 2 3 2 1 1 2 3 1 3 2 3 1
11 12 13 9 5 4 2 6 3 11 11 12 11 10 8 7 7 7 9 10 9 8 10 10 8 8 7 6 3 2 3 2 3 5 5 5 3 3 0 1 1 3 3 2 2 1 2 1 0
6 4 3 9 7 3 4 3 6 6 9 12 11 9 8 8 8 7 9 9 10 8 8 9 11 10 6 4 3 2 4 3 3 4 5 6 3 1 3 1 1 2 2 1 1 1 1 2 1
4 6 3 7 11 7 9 5 8 6 8 12 11 10 9 9 7 9 9 9 11 12 8 10 8 10 8 4 3 5 4 4 3 3 4 6 3 4 2 1 2 1 1 1 2 2 3 3 1
6 6 3 3 9 9 9 5 9 11 10 8 11 11 10 9 10 10 10 10 11 14 11 8 8 8 5 5 4 4 3 4 3 3 4 5 4 4 3 3 2 3 1 2 1 2 3 3 3
4 4 5 4 4 8 7 6 12 11 13 13 10 13 11 11 11 11 11 11 12 12 12 11 9 8 6 5 5 4 5 4 3 3 4 5 3 4 3 3 4 3 3 2 1 1 1 1 1
8 6 6 3 1 6 4 7 8 14 13 14 13 12 11 13 12 12 11 13 13 14 13 12 10 9 7 6 4 3 2 3 2 3 4 3 4 4 3 3 2 1 2 3 2 1 1 1 1
8 6 4 3 5 7 8 6 7 11 14 14 14 13 14 13 15 15 15 14 15 15 15 14 13 11 9 7 5 4 3 1 4 5 5 5 5 4 3 4 4 3 4 3 3 3 3 2 1
9 5 2 6 9 3 3 3 5 7 11 16 15 15 16 18 16 15 17 17 16 15 14 14 14 13 11 9 7 6 4 4 5 4 3 5 5 5 4 3 4 4 2 1 3 3 3 5 4
4 4 3 8 8 5 8 7 9 2 5 11 15 16 16 17 17 16 16 16 16 14 14 14 14 13 12 11 9 7 8 7 6 4 7 3 4 5 5 5 5 4 5 3 2 1 2 1 2
3 5 6 6 8 11 10 7 7 5 2 3 3 14 17 17 17 18 14 12 16 16 15 14 15 13 13 12 11 11 7 6 4 5 3 5 7 7 6 6 4 4 3 3 1 1 2 3 3
12 12 8 7 10 7 7 4 7 4 4 3 1 3 10 16 16 15 16 15 16 16 16 15 15 15 14 14 13 13 11 9 7 6 8 7 5 4 7 6 5 5 4 2 2 3 3 1 1
12 14 9 5 8 7 7 6 3 2 5 3 2 3 2 10 14 16 17 15 17 17 17 16 17 15 16 15 14 12 11 7 8 9 8 7 4 8 5 7 6 6 5 5 3 5 5 4 2
9 10 9 10 9 9 9 4 8 9 7 6 4 3 4 6 10 16 17 17 17 17 18 18 17 16 16 16 13 13 11 10 7 6 6 6 4 4 7 6 7 6 6 6 4 4 4 1 2
9 5 8 10 8 9 6 5 7 7 8 6 6 6 4 3 5 10 13 17 16 17 16 18 18 17 17 15 14 12 12 11 9 8 8 6 3 6 4 8 6 6 6 6 6 6 6 4 5
8 11 9 11 6 10 9 3 4 5 3 6 3 3 2 4 6 6 8 12 16 15 12 16 16 17 16 15 14 13 12 13 11 9 8 8 6 5 7 6 5 6 5 5 6 5 3 5 4
6 8 9 9 9 8 9 10 4 5 2 1 2 2 4 6 7 7 8 9 14 16 14 13 12 14 15 15 13 13 12 12 11 10 9 9 8 7 7 7 7 7 5 4 6 6 4 4 6
Wind_Direction
183 190 201 218 241 242 114 97 97 112 116 63 87 9 54 30 11 47 117 126 139 139 130 151 134 133 127 131 120 123 115 130 139 133 138 121 113 109 112 101 111 111 111 105 106 100 98 100 99
162 177 225 257 258 151 130 110 77 61 79 103 104 149 74 77 60 117 131 133 151 140 140 134 137 134 122 125 127 114 110 108 113 136 133 124 114 106 112 112 98 103 95 101 97 92 95 95 95
205 237 264 251 269 50 124 89 129 109 92 131 109 4 33 57 99 90 107 132 138 137 113 114 133 135 116 126 103 108 104 99 79 41 109 107 104 108 113 110 111 111 108 103 103 105 101 100 97
203 193 220 251 123 77 98 110 118 123 106 63 104 92 98 53 85 112 133 136 135 142 123 127 136 128 115 103 104 112 109 119 118 188 129 111 117 109 105 107 108 108 108 108 112 106 108 105 101
232 247 245 228 104 107 109 107 108 82 86 111 164 113 92 85 110 126 132 158 138 124 105 128 131 119 111 104 96 96 91 89 142 153 121 124 111 105 105 116 115 112 113 121 115 114 114 114 116
222 276 238 203 114 114 109 116 73 81 90 103 122 109 91 117 138 128 137 137 132 114 114 122 124 118 112 104 82 89 103 124 156 136 129 115 112 108 109 106 108 113 122 123 123 130 133 135 127
292 265 248 188 135 120 110 120 54 84 93 92 112 101 112 138 127 139 134 128 121 116 114 124 126 122 108 95 89 91 153 159 134 132 117 118 117 113 112 107 111 120 124 122 131 143 150 144 136
259 285 195 163 164 105 66 97 97 54 76 108 11 133 155 130 149 138 148 142 137 134 132 126 141 136 121 105 81 282 145 133 135 125 115 130 120 126 136 137 113 128 128 131 146 161 163 157 156
229 235 162 96 138 110 124 140 74 85 124 79 63 61 104 135 145 130 157 123 153 153 143 133 137 143 129 127 161 254 152 129 131 131 145 186 141 150 165 74 147 147 143 153 167 163 161 158 150
314 307 66 51 86 60 127 127 82 136 144 114 109 108 123 138 143 141 148 152 147 154 161 122 143 147 147 140 169 196 172 163 127 124 145 153 121 90 68 109 161 163 181 187 175 169 167 202 155
28 40 126 78 81 346 121 82 60 162 102 121 130 133 139 143 137 131 133 147 141 147 126 138 139 137 142 131 154 167 228 149 136 139 184 117 157 162 145 141 160 163 189 189 185 173 213 35 18
123 114 108 110 43 359 73 59 123 53 69 114 126 134 143 139 140 125 131 142 142 154 149 146 135 141 137 149 164 149 144 139 142 107 161 156 190 133 145 89 107 213 75 95 116 114 78 95 108
95 128 115 117 79 320 34 115 98 94 113 119 129 142 146 147 120 115 121 132 142 144 146 142 141 143 155 164 187 167 137 165 119 137 105 123 124 120 161 103 320 12 12 134 147 103 67 120 25
120 121 126 140 78 335 322 177 69 138 139 134 146 147 144 142 132 125 130 137 153 153 146 146 151 154 164 146 174 134 165 120 130 118 108 141 168 126 127 161 73 19 360 50 66 55 18 343 357
133 124 133 153 163 175 171 215 191 150 156 156 156 152 146 150 144 147 137 142 148 174 152 139 158 171 170 158 175 176 120 153 159 123 141 120 186 138 327 102 335 12 26 270 178 198 120 306 284
127 171 161 155 168 124 227 304 148 159 167 167 163 161 160 158 169 152 146 145 144 138 147 176 156 165 177 163 203 250 163 235 146 140 141 153 124 135 189 166 80 15 353 317 57 355 4 33 344
217 96 100 154 201 151 214 131 152 182 211 198 176 165 170 162 176 156 152 155 148 122 168 190 166 159 182 186 239 232 191 208 161 149 137 155 153 123 259 219 104 294 20 9 318 65 348 49 22
105 95 102 59 172 209 202 178 167 185 177 214 200 182 186 179 173 168 162 155 153 152 172 175 191 165 177 214 215 232 190 204 172 163 132 166 134 186 250 227 250 266 251 188 30 28 34 6 10
0 19 25 59 128 219 244 255 169 192 190 206 233 195 205 194 161 168 174 168 164 165 172 183 186 176 205 201 203 196 205 185 186 169 141 150 156 176 203 243 192 245 248 1 219 145 144 138 62
288 295 80 112 161 232 270 260 217 184 211 218 207 221 203 238 185 176 188 178 187 179 182 187 199 191 205 203 215 304 272 192 170 168 156 170 171 186 218 255 199 136 171 204 196 192 172 359 75
249 300 333 332 152 231 287 230 199 200 202 217 222 219 211 216 199 189 189 194 190 192 189 189 193 196 206 224 205 214 233 230 203 180 188 173 180 204 219 218 268 178 256 161 178 151 278 92 121
262 29 281 163 213 83 262 103 125 163 202 209 213 218 219 192 224 208 195 194 196 195 194 192 194 194 199 203 218 241 305 269 204 215 154 163 195 200 182 176 192 216 179 125 138 133 327 292 66
322 308 200 184 233 230 169 263 111 212 206 200 211 211 217 212 211 211 213 193 199 192 190 191 191 197 206 198 228 212 224 196 215 184 153 179 181 212 194 187 178 180 206 133 79 127 311 225 348
145 171 180 200 265 249 126 265 159 128 34 90 185 200 210 221 212 215 207 226 195 191 193 185 188 196 195 200 203 218 232 236 254 219 153 184 212 187 198 186 176 163 165 154 88 292 225 343 342
215 208 230 212 205 237 128 222 305 125 174 278 292 179 221 209 219 216 220 202 221 199 192 190 187 193 197 199 202 208 221 234 223 231 217 196 171 224 174 199 193 184 187 194 222 230 281 285 224
214 264 283 276 280 279 123 237 222 86 143 168 265 269 199 221 211 220 216 211 222 210 197 199 188 194 194 198 204 206 211 213 215 211 283 223 208 188 151 203 202 198 199 203 202 224 258 102 244
187 235 289 296 235 256 270 150 247 193 204 177 179 201 208 202 222 223 224 214 206 207 200 202 199 198 197 199 198 206 207 221 231 243 208 222 241 198 196 210 215 207 223 222 191 225 231 158 256
275 349 218 210 273 269 220 226 281 183 209 203 195 206 200 229 241 235 226 227 207 206 203 205 203 197 201 205 198 202 206 209 215 229 230 245 294 274 213 213 216 215 231 240 221 209 211 219 242
180 227 230 295 314 300 283 258 79 307 167 187 225 251 270 285 276 250 238 225 217 216 202 204 212 205 201 200 203 205 206 206 208 220 217 227 226 228 249 243 238 228 216 217 222 249 271 210 249
278 297 286 254 242 231 302 293 64 105 154 177 253 248 292 306 303 281 248 219 212 213 194 207 205 211 211 201 201 204 205 204 206 214 220 204 225 224 226 234 238 247 248 216 211 236 288 225 241